Location: Boiro
(42.6475°N, 8.8834°W)
Time: 03:06:26
(UTC+01:00)

Vanguard 1 Rocket - Pass Details

Date: 11 December 2021
Orbit: 651 x 4224 km, 34.3° (Epoch: 21 January)

Event Time Altitude Azimuth Distance (km) Brightness Sun altitude
Rises 03:36:31 0° 250° (WSW) 3,915 - -57.1°
Reaches altitude 10° 03:38:44 10° 245° (WSW) 3,227 - -56.7°
Maximum altitude 03:46:47 56° 170° (S) 2,173 - -55.4°
Exits shadow 03:51:44 39° 117° (ESE) 3,102 10.0 -54.5°
Drops below altitude 10° 04:02:35 10° 98° (E) 6,039 11.9 -52.6°
Sets 04:08:32 0° 96° (E) 7,570 12.6 -51.6°
